Погода в Кизляре

Погода в Кизляре : погода сейчас, прогноз погоды и архив. Всё, что Вы хотите узнать о погоде в Кизляре!

Поиск расширенной информации на нашем сайте:

Другие новости

Новости СМИ2

Главная страница сайта

Новости сайта

03.07.2017

Напоминаем, что на нашем специализированном сайте Метеоцентр.Азия вы можете получить высокодетализированные автоматические прогнозы погоды по пунктам России, СНГ и мира в авиационном формате (включающие направление и скорость ветра, видимость, явления погоды, количество и форму облачности, нижнюю и верхнюю границу облачности).


Погода в Кизляре - сегодня

Время (UTC), дата Ветер
(°,м/с) 
Видим.   Явления Облачность Т
(°С)
Тd
(°С)
f(%) Тe
(°С)
Pmin
(гПа)
dP
(гПа)
Po
(мм)
O2
(г/м3)
Тmin Tmax R s Состояние
почвы
09 20.10.17 240 (ЮЗ) 10 км    3/0 средняя 
[Ac trans]
+18.2 +10.6 61 +21  1019.5  -0.2  765  287           
12 20.10.17 220 (ЮЗ) 10 км    4/0 средняя 
[Ac trans]
+19.8 +10.2 54 +22  1019.2  -0.3  765  286           
15 20.10.17 230 (ЮЗ) 10 км    6/0 средняя 
[Ac trans]
+14.7 +12 84 +19  1018.2  -1  764  290    +20.6       
18 20.10.17 240 (ЮЗ) 4000 м  дымка  3/0 средняя 
[Ac trans]
+11.6 +10.6 94 +14  1018.8  0.6  764  294           
21 20.10.17 тихо ()   4000 м  дымка  ясно 
+9 +8.6 97 +9  1018.3  -0.5  764  297           
00 21.10.17 тихо ()   4000 м  дымка  ясно 
+6.9 +6.2 95 +7  1017.7  -0.5  764  299           
03 21.10.17 тихо ()   4000 м  дымка  ясно 
+6.6 +6.4 99 +7  1017.5  -0.2  764  299  +6.2        влажная 
06 21.10.17 030 (СВ) 4000 м  дымка  4/0 средняя 
[Ac trans]
+9.7 +9.5 99 +11  1017.8  0.2  764  296           
09 21.10.17 040 (СВ) 10 км    ясно 
+17 +8.2 56 +18  1017.7  -0.2  764  288           
12 21.10.17 030 (СВ) 10 км    3/0 средняя 
[Ac trans]
+18.9 +8.8 52 +20  1017.4  -0.3  763  286           
15 21.10.17 020 (С) 10 км    3/0 средняя 
[Ac trans]
+13 +10.1 83 +14  1015.5  -1.9  762  291    +19.5       
18 21.10.17 060 (СВ) 4000 м  дымка  3/0 средняя 
[Ac trans]
+10.3 +9.1 92 +10  1015.6  0.1  762  294           
21 21.10.17 160 (Ю) 4000 м  дымка  ясно 
+8 +7.6 97 +9  1014.7  -0.8  761  297           
00 22.10.17 тихо ()   4000 м  дымка  3/0 средняя 
[Ac trans]
+6.7 +6.4 98 +7  1013.7  -1.1  761  298           
03 22.10.17 040 (СВ) 0500 м  туман  ?/?  
+6.8 +6.8 100 +8  1013  -0.6  760  298  +5.6        влажная 
06 22.10.17 040 (СВ) 0500 м  туман  ?/?  
+9.8 +9.5 98 +11  1012.7  -0.3  760  294           
09 22.10.17 360 (С) 10 км  {туман}  ясно 
+16.7 +11.1 70 +20  1011.6  -1.2  759  286           
12 22.10.17 030 (СВ) 10 км    8/0 средняя, верхняя 
[Ac trans|Ci fib]
+18.5 +10.3 59 +21  1011.5  0.1  759  285           
15 22.10.17 090 (В) 10 км    6/0 средняя 
[Ac trans]
+14.7 +11.1 79 +18  1010.5  -1  758  288    +18.8       
18 22.10.17 090 (В) 10 км    3/0 средняя 
[Ac trans]
+11.6 +10 90 +14  1009.8  -0.7  758  291           
21 22.10.17 100 (В) 4000 м  дымка  4/0 средняя 
[Ac trans]
+11.2 +11 99 +14  1010.8  758  292           
00 23.10.17 270 (З) 4000 м  дымка  10/10 600 м 
[Sc]
+11.8 +10.4 91 +13  1013.2  2.4  760  292           
06 23.10.17 340 (С) 10 км  {дождь}  10/10 600 м 
[Sc]
+7 +5.5 90 +6  1020  4.2  765  300  +7         
09 23.10.17 320 (СЗ) 10 км    10/10 600 м 
[Sc]
+6.2 +4.3 88 +5  1021.8  1.8  767  301           
12 23.10.17 320 (СЗ) 10 км    10/10 600 м 
[Sc]
+7 +4.3 83 +7  1021.8  767  301           
Время (UTC), дата Ветер
(°,м/с) 
Видим.   Явления Облачность Т
(°С)
Тd
(°С)
f(%) Тe
(°С)
Pmin
(гПа)
dP
(гПа)
Po
(мм)
O2
(г/м3)
Тmin Tmax R s Состояние
почвы

Для получения пояснительной информации подведите курсор к названию столбца.

ПОГОДА в Кизляре - архив

Всё, что Вы хотите узнать о погоде в Кизляре - удобно и подробно!

Выберите нужную дату (начиная с 1 января 2015* года) и нажмите кнопку "Найти".
Будут отображены архивные сводки погоды по пункту Кизляр, начиная с указанной даты.


Отображать данные в формате CSV (для использования в таблицах Excel)


Внимание! Наш архив погоды предназначен исключительно для личного некоммерческого использования в познавательных целях. Если Вам необходимы официальные справки о состоянии погоды (для производственных, юридических, коммерческих и т.п. целей), обращайтесь в органы Росгидромета.

*Примечание: данная дата относится к архиву по метеостанциям СССР (Россия, СНГ, Балтия).
Архив по метеостанциям Зарубежной Европы и Азии (кроме Китая) хранится 10 дней, по другим регионам земного шара (Китай, Африка, Америка, Австралия, Океания) - 1 день.

Кизляр - район местоположения метеостанции


Название, широта, долгота, высота метеостанции:
Кизляр 43.8°ш. 46.7°д. -5 м над ур. моря [Российская Федерация]

Дополнительная информация

В oтличие oт бoльшинства пoгoдных сайтoв мы публикуем пoдрoбную метеoинфoрмацию в детальнoм прoфессиoнальнoм фoрмате.

Характеристики температуры и влажнoсти вoздуха измеряются на высoте 2 м в тени вдали oт зданий и деревьев.
Скoрoсть ветра измеряется на высoте 10 м (на урoвне рoста челoвека скoрoсть ветра ниже в 1.5-2 раза). Если метеoстанция нахoдится в гoрoде или в лесу, тo скoрoсть ветра занижена на 2-4 м/с пo сравнению с oткрытым местoм. Скoрoсть ветра над акватoриями крупных рек и oзёр, а также на вершинах хoлмoв на 2-5 м/с выше, чем в oбычных услoвиях.
Атмoсфернoе давление в разных тoчках местнoсти мoжет значительнo oтличаться oт давления на метеoстанции, в зависимoсти oт услoвий рельефа (при пoдъёме на 10 м давление пoнижается примернo на 1 мм рт.ст.).